This is the latest recevied weather packets stored in our database for station/object K1RTA-1. If no packets are shown the sender has not sent any weather packets the latest 1 day(s).
| Time | Temp. | Humidity | Pressure | Rain* | Wind** | Luminosity | Snow |
|---|---|---|---|---|---|---|---|
| 1778072783 | 17.22° C | 79% | 1014.2 hPa | 0 mm | - | - | - |
| 1778071882 | 16.67° C | 81% | 1014.2 hPa | 0 mm | - | - | - |
| 1778070983 | 16.67° C | 81% | 1014.3 hPa | 0 mm | - | - | - |
| 1778070082 | 16.11° C | 83% | 1014.4 hPa | 0 mm | - | - | - |
| 1778067382 | 15.56° C | 84% | 1014.5 hPa | 0 mm | - | - | - |
| 1778065583 | 15° C | 86% | 1014.7 hPa | 0 mm | - | - | - |
| 1778064682 | 15° C | 86% | 1014.6 hPa | 0 mm | - | - | - |
| 1778063784 | 15° C | 87% | 1014.6 hPa | 0 mm | - | - | - |
| 1778061982 | 14.44° C | 88% | 1014.6 hPa | 0 mm | - | - | - |
| 1778059283 | 14.44° C | 88% | 1014.5 hPa | 0 mm | - | - | - |
| 1778057484 | 14.44° C | 88% | 1014.6 hPa | 0 mm | - | - | - |
| 1778056584 | 14.44° C | 88% | 1014.5 hPa | 0 mm | - | - | - |
| 1778055683 | 14.44° C | 88% | 1014.6 hPa | 0 mm | - | - | - |
| 1778054782 | 14.44° C | 88% | 1014.5 hPa | 0 mm | - | - | - |
| 1778053882 | 14.44° C | 88% | 1014.5 hPa | 0 mm | - | - | - |
| 1778052084 | 14.44° C | 88% | 1014.3 hPa | 0 mm | - | - | - |
| 1778051182 | 14.44° C | 88% | 1014.4 hPa | 0 mm | - | - | - |
| 1778050284 | 14.44° C | 88% | 1014.3 hPa | 0 mm | - | - | - |
| 1778048484 | 14.44° C | 88% | 1014.4 hPa | 0 mm | - | - | - |
| 1778047583 | 14.44° C | 88% | 1014.3 hPa | 0 mm | - | - | - |
| 1778046682 | 14.44° C | 88% | 1014.4 hPa | 0 mm | - | - | - |
| 1778044883 | 14.44° C | 87% | 1014.6 hPa | 0 mm | - | - | - |
| 1778043984 | 14.44° C | 86% | 1014.6 hPa | 0 mm | - | - | - |
| 1778043082 | 15° C | 86% | 1014.5 hPa | 0 mm | - | - | - |
| 1778040384 | 15° C | 84% | 1014.5 hPa | 0 mm | - | - | - |
* Rain latest hour (hover to see other rain measurements)
** Current wind speed in m/s (hover to see current wind gust speed)